[Date Prev][Date Next][Thread Prev][Thread Next] - [Date Index][Thread Index][Author Index]
2 Line ISS Keps 9-3
- Subject: [sarex] 2 Line ISS Keps 9-3
- From: "Dave Larsen PhD" <doc@xxxxxxxxxxx>
- Date: Fri, 3 Sep 2004 05:22:50 -0700
ISS
1 25544U 98067A 04247.45755620 .00017670 00000-0 15280-3 0 6000
2 25544 51.6360 286.1901 0005701 108.6019 33.6872 15.69274322330611
----
Via the sarex mailing list at AMSAT.ORG courtesy of AMSAT-NA.
To unsubscribe, send "unsubscribe sarex" to Majordomo@amsat.org
AMSAT Home